Notices

What's New in latest Release from April 7th, 2021:

- Updated Glossary, including Speed of Maximum Gust, and Total Hourly Precipitation

- Updated national and regional climate services offices contacts and prices information

- Addition of station inventory lists for 1981-2010, 1971-2000, and 1961-1990 Normals.

If you haven't already, please take our survey and provide feedback about our website: https://eccc.sondage-survey.ca/f/LanguageSelection.aspx?s=442ca660-fcf1-47c0-95a9-59707d6fd709

Hourly Data Report for October 22, 2017

VICTORIA UNIVERSITY CS
BRITISH COLUMBIA

48°27'25.200" N
123°18'16.600" W
60.10 m
1018598
71783
WYJ

Download Data

Hourly Data (October 2017)
Hourly Data Report for October 22, 2017
TIME
LST
Temp Definition
°C
Dew Point Definition
°C
Rel Hum Definition
%
Precip. Amount Definition
mm

Wind Dir Definition
10's deg

Wind Spd Definition
km/h
Visibility Definition
km
Stn Press Definition
kPa
Hmdx Definition


Wind Chill Definition


Weather Definition


00:00 11.7 10.7 94 2.2 23 4   99.55     LegendNANA
01:00 11.7 10.4 92 1.6 25 9   99.66     LegendNANA
02:00 11.1 9.7 92 0.0 24 10   99.83     LegendNANA
03:00 11.4 8.9 85 0.0 25 13   99.90     LegendNANA
04:00 11.1 8.3 83 0.0 25 9   100.09     LegendNANA
05:00 11.2 7.9 80 0.0 24 9   100.26     LegendNANA
06:00 11.0 7.0 77 0.0 24 10   100.40     LegendNANA
07:00 10.2 8.0 86 0.4 27 10   100.69     LegendNANA
08:00 9.9 7.8 86 0.4 24 7   100.85     LegendNANA
09:00 11.9 8.5 80 0.3 25 10   100.98     LegendNANA
10:00 13.5 8.9 74 0.0 22 9   101.12     LegendNANA
11:00 12.0 8.0 76 0.3 23 8   101.27     LegendNANA
12:00 15.0 9.1 68 0.0 23 9   101.38     LegendNANA
13:00 13.1 8.9 76 0.5 26 7   101.49     LegendNANA
14:00 14.9 8.7 67 0.0 22 9   101.56     LegendNANA
15:00 13.1 6.7 65 0.0 24 14   101.70     LegendNANA
16:00 10.8 8.0 83 0.3 26 9   101.75     LegendNANA
17:00 10.6 7.4 80 0.0 27 4   101.87     LegendNANA
18:00 10.5 6.8 78 0.0 22 4   101.97     LegendNANA
19:00 9.4 7.4 88 0.0 22 2   102.08     LegendNANA
20:00 8.7 7.9 95 0.0 13 2   102.19     LegendNANA
21:00 7.8 6.7 93 0.0 17 3   102.23     LegendNANA
22:00 7.9 6.9 94 0.0 16 3   102.33     LegendNANA
23:00 8.9 7.4 91 0.0 18 5   102.40     LegendNANA

Notes on Data Quality.

Legend

  • E = Estimated
  • M = Missing
  • NA = Not Available*
  • [empty] = Indicates an unobserved value
Date modified: